CFE35L EGLC-LESO

Flight info

Callsign CFE35L
Flight time 1h 33m
Altitude 25000
Route SOQQA1H SOQQA M87 EKNIV M91 LYD UM189 WAFFU/N0452F320 DCT SITET/N0450F330 UN859 SOPIL DCT BALAN DCT LMG DCT UVELI DCT OSMOB DCT VAVIX DCT BTZ/N0343F190 R10 URUNA P181 SSN SSN1T
Aircraft E190/M-SDE2E3GIJ1LORVWXY/SB1

Departure

Time 2026-05-08 13:37
Airport London City Airport (EGLC)

Arrival

Time 2026-05-08 15:11
Airport San Sebastián Airport (LESO)
Time Latitude Longitude Altitude Speed Heading
2026-05-08 13:28 51.50411 0.05133 28 ft 0 kts 327°
2026-05-08 13:34 51.50412 0.05132 28 ft 1 kts 327°
2026-05-08 13:34 51.50424 0.05119 28 ft 3 kts 327°
2026-05-08 13:34 51.50448 0.05087 28 ft 6 kts 310°
2026-05-08 13:34 51.50461 0.05004 28 ft 9 kts 274°
2026-05-08 13:35 51.50465 0.04897 28 ft 10 kts 274°
2026-05-08 13:35 51.50469 0.04773 28 ft 12 kts 273°
2026-05-08 13:35 51.50473 0.04632 28 ft 13 kts 272°
2026-05-08 13:35 51.50481 0.04487 28 ft 9 kts 287°
2026-05-08 13:36 51.50524 0.04441 28 ft 7 kts 358°
2026-05-08 13:36 51.50554 0.04477 28 ft 4 kts 77°
2026-05-08 13:36 51.50554 0.04493 28 ft 9 kts 88°
2026-05-08 13:36 51.50541 0.04994 28 ft 80 kts 92°
2026-05-08 13:37 51.50499 0.06214 68 ft 131 kts 94°
2026-05-08 13:37 51.50454 0.07715 690 ft 136 kts 92°
2026-05-08 13:37 51.50456 0.09276 1228 ft 153 kts 88°
2026-05-08 13:37 51.50750 0.11112 1405 ft 186 kts 64°
2026-05-08 13:38 51.51735 0.12694 1760 ft 211 kts 35°
2026-05-08 13:38 51.53016 0.13933 2492 ft 218 kts 32°
2026-05-08 13:38 51.54349 0.15162 3341 ft 223 kts 31°
2026-05-08 13:38 51.55636 0.16566 4183 ft 224 kts 45°
2026-05-08 13:39 51.56579 0.18587 4738 ft 238 kts 68°
2026-05-08 13:39 51.56840 0.21261 5167 ft 252 kts 98°
2026-05-08 13:39 51.56431 0.24076 5737 ft 263 kts 107°
2026-05-08 13:39 51.56177 0.26994 6433 ft 272 kts 87°
2026-05-08 13:40 51.56384 0.30039 7093 ft 277 kts 94°
2026-05-08 13:40 51.55812 0.32954 7740 ft 277 kts 127°
2026-05-08 13:40 51.54362 0.34949 8437 ft 276 kts 152°
2026-05-08 13:40 51.52629 0.36311 9138 ft 280 kts 156°
2026-05-08 13:41 51.50873 0.37729 9820 ft 284 kts 153°
2026-05-08 13:41 51.49139 0.39351 10349 ft 295 kts 150°
2026-05-08 13:41 51.47356 0.41127 10750 ft 308 kts 149°
2026-05-08 13:41 51.45522 0.42985 11345 ft 315 kts 149°
2026-05-08 13:42 51.43663 0.44892 12082 ft 318 kts 149°
2026-05-08 13:42 51.41793 0.46814 12884 ft 320 kts 149°
2026-05-08 13:42 51.39909 0.48756 13706 ft 323 kts 148°
2026-05-08 13:42 51.38011 0.50712 14435 ft 326 kts 148°
2026-05-08 13:43 51.36090 0.52688 15184 ft 330 kts 149°
2026-05-08 13:43 51.34137 0.54670 15912 ft 334 kts 149°
2026-05-08 13:43 51.32182 0.56639 16631 ft 338 kts 149°
2026-05-08 13:43 51.30174 0.58642 17360 ft 342 kts 150°
2026-05-08 13:44 51.28132 0.60656 18092 ft 347 kts 150°
2026-05-08 13:44 51.26060 0.62682 18761 ft 350 kts 150°
2026-05-08 13:44 51.24669 0.64035 19164 ft 353 kts 150°
2026-05-08 13:44 51.22548 0.66077 19738 ft 358 kts 150°
2026-05-08 13:45 51.20393 0.68137 20315 ft 363 kts 150°
2026-05-08 13:45 51.18211 0.70208 20882 ft 367 kts 150°
2026-05-08 13:45 51.15996 0.72294 21422 ft 371 kts 150°
2026-05-08 13:45 51.13021 0.75074 22129 ft 377 kts 150°
2026-05-08 13:46 51.11484 0.76501 22539 ft 380 kts 150°
2026-05-08 13:46 51.09181 0.78620 23066 ft 384 kts 151°
2026-05-08 13:46 51.06855 0.80751 23628 ft 388 kts 151°
2026-05-08 13:46 51.04533 0.82868 24099 ft 392 kts 151°
2026-05-08 13:47 51.02057 0.84692 24529 ft 395 kts 166°
2026-05-08 13:47 50.99330 0.85035 24984 ft 395 kts 188°
2026-05-08 13:47 50.96694 0.83856 25425 ft 395 kts 208°
2026-05-08 13:47 50.94416 0.81434 25871 ft 395 kts 220°
2026-05-08 13:48 50.92256 0.78689 26306 ft 399 kts 221°
2026-05-08 13:48 50.90076 0.75938 26734 ft 403 kts 221°
2026-05-08 13:48 50.87870 0.73171 27152 ft 406 kts 221°
2026-05-08 13:48 50.85643 0.70379 27566 ft 409 kts 221°
2026-05-08 13:49 50.83412 0.67566 27970 ft 411 kts 222°
2026-05-08 13:49 50.81199 0.64760 28360 ft 414 kts 223°
2026-05-08 13:49 50.78942 0.61887 28757 ft 417 kts 223°
2026-05-08 13:49 50.76677 0.58995 29149 ft 419 kts 223°
2026-05-08 13:50 50.74405 0.56084 29541 ft 421 kts 223°
2026-05-08 13:50 50.72123 0.53151 29922 ft 423 kts 224°
2026-05-08 13:50 50.69838 0.50202 30263 ft 425 kts 224°
2026-05-08 13:50 50.67546 0.47238 30614 ft 426 kts 224°
2026-05-08 13:51 50.65253 0.44266 30937 ft 427 kts 224°
2026-05-08 13:51 50.62990 0.41325 31346 ft 426 kts 224°
2026-05-08 13:51 50.60715 0.38363 31794 ft 423 kts 224°
2026-05-08 13:51 50.58425 0.35467 32237 ft 423 kts 220°
2026-05-08 13:52 50.55821 0.33128 32203 ft 437 kts 210°
2026-05-08 13:52 50.53035 0.31093 32214 ft 445 kts 209°
2026-05-08 13:52 50.47325 0.26935 32154 ft 456 kts 210°
2026-05-08 13:53 50.41601 0.22760 32080 ft 457 kts 210°
2026-05-08 13:53 50.35836 0.18554 32076 ft 457 kts 210°
2026-05-08 13:54 50.30061 0.14347 32074 ft 457 kts 210°
2026-05-08 13:54 50.24297 0.10158 32066 ft 456 kts 209°
2026-05-08 13:55 50.18535 0.05981 32058 ft 456 kts 209°
2026-05-08 13:56 50.09633 0.00827 32075 ft 467 kts 187°
2026-05-08 13:56 50.06376 0.01244 32084 ft 475 kts 171°
2026-05-08 13:56 50.03193 0.02472 32105 ft 477 kts 168°
2026-05-08 13:57 49.96759 0.05065 32058 ft 477 kts 169°
2026-05-08 13:57 49.90328 0.07609 32050 ft 477 kts 169°
2026-05-08 13:58 49.83888 0.10137 32052 ft 477 kts 169°
2026-05-08 13:58 49.77488 0.12637 32043 ft 477 kts 169°
2026-05-08 13:59 49.71045 0.15144 32040 ft 477 kts 169°
2026-05-08 13:59 49.64611 0.17689 32046 ft 477 kts 168°
2026-05-08 14:00 49.58175 0.20321 32051 ft 477 kts 168°
2026-05-08 14:00 49.51791 0.22917 32044 ft 477 kts 168°
2026-05-08 14:01 49.45368 0.25519 32047 ft 477 kts 168°
2026-05-08 14:01 49.38944 0.28110 32043 ft 477 kts 168°
2026-05-08 14:02 49.32515 0.30698 32050 ft 477 kts 169°
2026-05-08 14:02 49.26146 0.33341 32049 ft 477 kts 168°
2026-05-08 14:03 49.19749 0.36043 32045 ft 476 kts 168°
2026-05-08 14:03 49.13343 0.38741 32041 ft 476 kts 168°
2026-05-08 14:04 49.06954 0.41421 32034 ft 476 kts 168°
2026-05-08 14:04 49.00561 0.44094 32029 ft 476 kts 168°
2026-05-08 14:05 48.94172 0.46758 32028 ft 476 kts 168°
2026-05-08 14:05 48.87818 0.49401 32029 ft 476 kts 168°
2026-05-08 14:06 48.81432 0.52048 32027 ft 476 kts 168°
2026-05-08 14:06 48.75041 0.54628 32026 ft 475 kts 169°
2026-05-08 14:07 48.68650 0.57124 32030 ft 474 kts 169°
2026-05-08 14:07 48.62252 0.59623 32023 ft 474 kts 169°
2026-05-08 14:08 48.55891 0.62102 32025 ft 474 kts 169°
2026-05-08 14:08 48.49467 0.64627 32026 ft 474 kts 168°
2026-05-08 14:08 48.46339 0.65910 32379 ft 466 kts 168°
2026-05-08 14:09 48.43220 0.67185 32884 ft 460 kts 168°
2026-05-08 14:09 48.40133 0.68442 33073 ft 462 kts 168°
2026-05-08 14:09 48.37010 0.69709 33065 ft 466 kts 168°
2026-05-08 14:10 48.30709 0.72262 33071 ft 470 kts 168°
2026-05-08 14:10 48.24387 0.74814 33076 ft 471 kts 168°
2026-05-08 14:11 48.18076 0.77301 33033 ft 471 kts 169°
2026-05-08 14:11 48.11745 0.79785 33015 ft 470 kts 169°
2026-05-08 14:12 48.05418 0.82265 33011 ft 469 kts 169°
2026-05-08 14:12 47.99095 0.84737 33015 ft 469 kts 169°
2026-05-08 14:13 47.92809 0.87187 33003 ft 469 kts 169°
2026-05-08 14:13 47.86491 0.89648 33005 ft 469 kts 169°
2026-05-08 14:14 47.80185 0.92096 33004 ft 468 kts 169°
2026-05-08 14:14 47.73877 0.94538 32999 ft 467 kts 169°
2026-05-08 14:15 47.67585 0.96966 32996 ft 467 kts 169°
2026-05-08 14:15 47.61342 0.99371 32984 ft 466 kts 169°
2026-05-08 14:16 47.55070 1.01779 32991 ft 465 kts 169°
2026-05-08 14:16 47.48796 1.04184 32991 ft 465 kts 169°
2026-05-08 14:17 47.42515 1.06344 33004 ft 459 kts 179°
2026-05-08 14:17 47.36183 1.06347 32982 ft 456 kts 185°
2026-05-08 14:18 47.29847 1.06189 32983 ft 455 kts 185°
2026-05-08 14:18 47.23516 1.06047 32978 ft 455 kts 185°
2026-05-08 14:19 47.17179 1.05914 32969 ft 454 kts 184°
2026-05-08 14:19 47.10864 1.05783 32966 ft 453 kts 184°
2026-05-08 14:20 47.04584 1.05645 32964 ft 453 kts 184°
2026-05-08 14:20 46.98292 1.05430 32961 ft 451 kts 185°
2026-05-08 14:21 46.92001 1.05132 32959 ft 451 kts 185°
2026-05-08 14:21 46.85726 1.04848 32950 ft 450 kts 185°
2026-05-08 14:22 46.79494 1.04568 32947 ft 450 kts 185°
2026-05-08 14:22 46.73233 1.04289 32944 ft 450 kts 185°
2026-05-08 14:23 46.66984 1.04010 32948 ft 448 kts 185°
2026-05-08 14:23 46.60749 1.03731 32948 ft 447 kts 185°
2026-05-08 14:24 46.54538 1.03456 32945 ft 446 kts 185°
2026-05-08 14:24 46.48382 1.03244 32948 ft 446 kts 183°
2026-05-08 14:25 46.42188 1.03179 32944 ft 445 kts 184°
2026-05-08 14:25 46.35999 1.03101 32946 ft 444 kts 184°
2026-05-08 14:26 46.29826 1.03019 32943 ft 443 kts 184°
2026-05-08 14:26 46.23659 1.02936 32942 ft 442 kts 184°
2026-05-08 14:27 46.17508 1.02851 32949 ft 441 kts 184°
2026-05-08 14:27 46.11406 1.02767 32951 ft 440 kts 184°
2026-05-08 14:28 46.05284 1.02682 32955 ft 439 kts 184°
2026-05-08 14:28 45.99174 1.02597 32965 ft 439 kts 183°
2026-05-08 14:29 45.93056 1.02515 32966 ft 438 kts 184°
2026-05-08 14:29 45.86963 1.02429 32965 ft 437 kts 183°
2026-05-08 14:30 45.81105 1.00999 32987 ft 429 kts 207°
2026-05-08 14:30 45.78578 0.98679 33018 ft 426 kts 219°
2026-05-08 14:30 45.76310 0.96016 32955 ft 427 kts 221°
2026-05-08 14:31 45.71747 0.90584 32955 ft 426 kts 220°
2026-05-08 14:31 45.67186 0.85169 32934 ft 426 kts 220°
2026-05-08 14:32 45.60335 0.77054 32922 ft 427 kts 220°
2026-05-08 14:32 45.56535 0.72561 32938 ft 426 kts 220°
2026-05-08 14:33 45.51962 0.67165 32926 ft 427 kts 220°
2026-05-08 14:33 45.47383 0.61774 32931 ft 427 kts 219°
2026-05-08 14:34 45.42807 0.56400 32933 ft 427 kts 219°
2026-05-08 14:34 45.38219 0.51023 32918 ft 427 kts 219°
2026-05-08 14:35 45.33630 0.45654 32917 ft 427 kts 219°
2026-05-08 14:35 45.29038 0.40295 32922 ft 427 kts 219°
2026-05-08 14:36 45.24469 0.34974 32917 ft 427 kts 219°
2026-05-08 14:36 45.19865 0.29626 32916 ft 427 kts 219°
2026-05-08 14:37 45.15259 0.24287 32917 ft 427 kts 218°
2026-05-08 14:37 45.10651 0.18954 32915 ft 428 kts 218°
2026-05-08 14:38 45.06038 0.13627 32912 ft 428 kts 218°
2026-05-08 14:38 45.01454 0.08326 32916 ft 428 kts 218°
2026-05-08 14:39 44.96824 0.02941 32912 ft 429 kts 218°
2026-05-08 14:39 44.92241 -0.02378 32911 ft 429 kts 218°
2026-05-08 14:40 44.87618 -0.07729 32913 ft 430 kts 218°
2026-05-08 14:40 44.82979 -0.13084 32911 ft 431 kts 217°
2026-05-08 14:41 44.78322 -0.18450 32911 ft 433 kts 217°
2026-05-08 14:41 44.73649 -0.23819 32910 ft 433 kts 217°
2026-05-08 14:42 44.68971 -0.29187 32908 ft 434 kts 217°
2026-05-08 14:42 44.64249 -0.34464 32920 ft 433 kts 213°
2026-05-08 14:43 44.59323 -0.39249 32911 ft 433 kts 212°
2026-05-08 14:43 44.54357 -0.44041 32912 ft 433 kts 212°
2026-05-08 14:44 44.49388 -0.48825 32912 ft 433 kts 212°
2026-05-08 14:44 44.44418 -0.53603 32912 ft 433 kts 212°
2026-05-08 14:45 44.39447 -0.58372 32911 ft 433 kts 211°
2026-05-08 14:45 44.34474 -0.63134 32910 ft 433 kts 211°
2026-05-08 14:46 44.29486 -0.67900 32911 ft 434 kts 211°
2026-05-08 14:46 44.24557 -0.72758 32913 ft 435 kts 213°
2026-05-08 14:47 44.19704 -0.77723 32913 ft 435 kts 213°
2026-05-08 14:47 44.14812 -0.82700 32512 ft 432 kts 213°
2026-05-08 14:48 44.12411 -0.85137 32271 ft 425 kts 212°
2026-05-08 14:48 44.10014 -0.87564 31616 ft 425 kts 212°
2026-05-08 14:48 44.07633 -0.89976 31052 ft 420 kts 212°
2026-05-08 14:48 44.05281 -0.92353 30483 ft 415 kts 212°
2026-05-08 14:49 44.02964 -0.94694 29926 ft 410 kts 212°
2026-05-08 14:49 44.00670 -0.97009 29388 ft 403 kts 212°
2026-05-08 14:49 43.98419 -0.99274 28847 ft 397 kts 212°
2026-05-08 14:49 43.96196 -1.01511 28342 ft 393 kts 213°
2026-05-08 14:50 43.93995 -1.03726 27821 ft 390 kts 213°
2026-05-08 14:50 43.91832 -1.05899 27311 ft 387 kts 213°
2026-05-08 14:50 43.89658 -1.08083 26792 ft 384 kts 213°
2026-05-08 14:50 43.87504 -1.10245 26284 ft 381 kts 213°
2026-05-08 14:51 43.85361 -1.12393 25783 ft 378 kts 213°
2026-05-08 14:51 43.83238 -1.14518 25285 ft 375 kts 213°
2026-05-08 14:51 43.81130 -1.16628 24787 ft 372 kts 213°
2026-05-08 14:51 43.79033 -1.18726 24287 ft 370 kts 213°
2026-05-08 14:52 43.76953 -1.20803 23798 ft 367 kts 213°
2026-05-08 14:52 43.72863 -1.24890 22830 ft 359 kts 213°
2026-05-08 14:52 43.70842 -1.26903 22352 ft 357 kts 213°
2026-05-08 14:53 43.68833 -1.28903 21881 ft 355 kts 213°
2026-05-08 14:53 43.66833 -1.30896 21415 ft 353 kts 213°
2026-05-08 14:53 43.64842 -1.32876 20940 ft 351 kts 213°
2026-05-08 14:53 43.62868 -1.34839 20460 ft 348 kts 213°
2026-05-08 14:54 43.60907 -1.36784 20008 ft 345 kts 213°
2026-05-08 14:54 43.58968 -1.38709 19553 ft 342 kts 213°
2026-05-08 14:54 43.57070 -1.40589 19103 ft 339 kts 213°
2026-05-08 14:54 43.55162 -1.42476 18665 ft 336 kts 213°
2026-05-08 14:55 43.53272 -1.44347 18201 ft 333 kts 213°
2026-05-08 14:55 43.51399 -1.46196 17761 ft 329 kts 213°
2026-05-08 14:55 43.49576 -1.48076 17404 ft 325 kts 214°
2026-05-08 14:55 43.47705 -1.49783 17081 ft 321 kts 208°
2026-05-08 14:56 43.45929 -1.51604 16941 ft 315 kts 221°
2026-05-08 14:56 43.44605 -1.53943 16485 ft 306 kts 236°
2026-05-08 14:56 43.43783 -1.56596 15939 ft 298 kts 248°
2026-05-08 14:56 43.42919 -1.59124 15103 ft 293 kts 229°
2026-05-08 14:57 43.41682 -1.61335 14904 ft 298 kts 231°
2026-05-08 14:57 43.40474 -1.63738 14474 ft 309 kts 232°
2026-05-08 14:57 43.39265 -1.66214 14041 ft 314 kts 233°
2026-05-08 14:57 43.38057 -1.68724 13647 ft 311 kts 233°
2026-05-08 14:58 43.36907 -1.71123 13364 ft 300 kts 233°
2026-05-08 14:58 43.35764 -1.73537 12499 ft 304 kts 234°
2026-05-08 14:58 43.34606 -1.75911 12038 ft 288 kts 233°
2026-05-08 14:58 43.33490 -1.78149 11707 ft 284 kts 234°
2026-05-08 14:59 43.32689 -1.80648 11357 ft 293 kts 255°
2026-05-08 14:59 43.33732 -1.86019 10551 ft 309 kts 311°
2026-05-08 14:59 43.35331 -1.87979 10165 ft 307 kts 319°
2026-05-08 15:00 43.36984 -1.89843 9721 ft 306 kts 318°
2026-05-08 15:00 43.38588 -1.91681 9314 ft 302 kts 318°
2026-05-08 15:00 43.40191 -1.93527 8926 ft 298 kts 317°
2026-05-08 15:00 43.41770 -1.95353 8522 ft 295 kts 317°
2026-05-08 15:01 43.43346 -1.97151 8102 ft 293 kts 320°
2026-05-08 15:01 43.45167 -1.98356 7717 ft 293 kts 349°
2026-05-08 15:01 43.47158 -1.98118 7454 ft 285 kts 23°
2026-05-08 15:01 43.48674 -1.96546 7278 ft 266 kts 56°
2026-05-08 15:02 43.49286 -1.94302 6935 ft 249 kts 89°
2026-05-08 15:02 43.49308 -1.91954 6624 ft 239 kts 88°
2026-05-08 15:02 43.49719 -1.89792 6335 ft 235 kts 72°
2026-05-08 15:02 43.50315 -1.87718 5998 ft 230 kts 71°
2026-05-08 15:03 43.50938 -1.85716 5705 ft 225 kts 69°
2026-05-08 15:03 43.51595 -1.83788 5429 ft 220 kts 68°
2026-05-08 15:03 43.52256 -1.81926 5154 ft 214 kts 68°
2026-05-08 15:03 43.52922 -1.80115 4859 ft 210 kts 68°
2026-05-08 15:04 43.53589 -1.78348 4585 ft 206 kts 67°
2026-05-08 15:04 43.54252 -1.76616 4301 ft 202 kts 67°
2026-05-08 15:04 43.54790 -1.74868 4032 ft 193 kts 88°
2026-05-08 15:04 43.54502 -1.73292 4027 ft 155 kts 135°
2026-05-08 15:05 43.53789 -1.72150 3911 ft 164 kts 134°
2026-05-08 15:05 43.53034 -1.70882 3377 ft 174 kts 134°
2026-05-08 15:05 43.52296 -1.69623 3121 ft 161 kts 134°
2026-05-08 15:05 43.51623 -1.68461 2915 ft 153 kts 134°
2026-05-08 15:06 43.50960 -1.67324 2758 ft 152 kts 134°
2026-05-08 15:06 43.50302 -1.66188 2651 ft 152 kts 134°
2026-05-08 15:06 43.49523 -1.65239 2459 ft 151 kts 159°
2026-05-08 15:06 43.48518 -1.65199 2330 ft 146 kts 198°
2026-05-08 15:07 43.47647 -1.65946 2319 ft 149 kts 213°
2026-05-08 15:07 43.46812 -1.66842 2308 ft 153 kts 214°
2026-05-08 15:07 43.45970 -1.67748 2250 ft 154 kts 215°
2026-05-08 15:07 43.45143 -1.68655 2222 ft 151 kts 214°
2026-05-08 15:08 43.44309 -1.69558 2215 ft 153 kts 214°
2026-05-08 15:08 43.43751 -1.70167 2123 ft 158 kts 214°
2026-05-08 15:08 43.42620 -1.71407 1764 ft 152 kts 215°
2026-05-08 15:08 43.41813 -1.72303 1519 ft 147 kts 214°
2026-05-08 15:09 43.41019 -1.73166 1321 ft 144 kts 216°
2026-05-08 15:09 43.40235 -1.74033 1110 ft 145 kts 214°
2026-05-08 15:09 43.39442 -1.74897 920 ft 146 kts 216°
2026-05-08 15:09 43.38636 -1.75787 729 ft 149 kts 217°
2026-05-08 15:10 43.37820 -1.76678 482 ft 150 kts 217°
2026-05-08 15:10 43.37005 -1.77569 269 ft 149 kts 219°
2026-05-08 15:10 43.36207 -1.78445 82 ft 148 kts 218°
2026-05-08 15:10 43.35446 -1.79278 21 ft 118 kts 218°
2026-05-08 15:11 43.35080 -1.79687 20 ft 19 kts 219°
2026-05-08 15:11 43.35064 -1.79737 20 ft 3 kts 336°
2026-05-08 15:11 43.35084 -1.79705 20 ft 7 kts 54°
2026-05-08 15:11 43.35119 -1.79650 20 ft 8 kts 45°
2026-05-08 15:12 43.35175 -1.79585 23 ft 15 kts 39°
2026-05-08 15:12 43.35265 -1.79483 23 ft 20 kts 39°
2026-05-08 15:12 43.35372 -1.79366 21 ft 21 kts 39°
2026-05-08 15:12 43.35479 -1.79249 19 ft 18 kts 36°
2026-05-08 15:13 43.35537 -1.79273 20 ft 0 kts 318°
2026-05-08 15:13 43.35538 -1.79273 20 ft 1 kts 321°
2026-05-08 15:13 43.35564 -1.79299 18 ft 5 kts 345°
2026-05-08 15:13 43.35589 -1.79282 18 ft 0 kts 40°
2026-05-08 15:14 43.35606 -1.79276 19 ft 0 kts 311°